C7607 Weather Reports


time (UTC)temp
F
wind
direction
speed
knots
gust
knots
rain 1hr
in
rain 24hr
in
rain mn
in
humidity
%
barometer
mb
20260503060108 43 0 0.0 0.0 0.00 0.01 0.00 90 1015.7
20260503054555 43 0 0.0 0.0 0.00 0.01 0.00 92 1015.7
20260503053041 43 0 0.0 0.0 0.00 0.01 0.00 92 1015.8
20260503051536 43 0 0.0 0.0 0.00 0.01 0.00 92 1015.6
20260503050048 44 0 0.0 0.0 0.00 0.01 0.00 92 1015.7
20260503044542 44 0 0.0 0.0 0.00 0.01 0.00 93 1015.8
20260503043039 44 0 0.0 0.0 0.00 0.01 0.00 93 1015.8
20260503041545 45 0 0.0 0.0 0.00 0.01 0.00 93 1015.7
20260503040048 45 0 0.0 1.7 0.00 0.01 0.00 93 1015.5
20260503034543 45 0 0.0 0.0 0.00 0.01 0.01 93 1015.4
20260503033043 45 0 0.0 0.0 0.00 0.01 0.01 92 1015.5
20260503031546 46 0 0.0 0.0 0.00 0.01 0.01 92 1015.4
20260503030045 46 0 0.0 0.0 0.00 0.01 0.01 92 1015.2
20260503024537 47 0 0.0 0.0 0.00 0.01 0.01 91 1015.1
20260503023042 48 0 0.0 0.0 0.00 0.01 0.01 91 1015.0
20260503021535 49 0 0.0 0.0 0.00 0.01 0.01 90 1014.8
20260503020042 49 0 0.0 0.0 0.00 0.01 0.01 89 1014.9
20260503014559 50 0 0.0 0.0 0.00 0.01 0.01 88 1014.5
20260503013044 50 0 0.0 0.0 0.00 0.01 0.01 86 1014.5
20260503011543 50 0 0.0 0.0 0.00 0.01 0.01 85 1014.4
20260503010042 51 0 0.0 0.0 0.00 0.01 0.01 83 1014.2
20260503004539 52 0 0.0 0.0 0.00 0.01 0.01 81 1014.0
20260503003040 54 0 0.0 0.0 0.00 0.01 0.01 77 1013.9
20260503001544 55 0 0.0 0.0 0.00 0.01 0.01 77 1013.7
20260503000047 56 0 0.0 0.0 0.00 0.01 0.01 71 1013.3
20260502234556 57 0 0.0 2.6 0.00 0.01 0.01 65 1013.2
20260502233040 57 61 0.9 3.5 0.00 0.01 0.01 63 1012.8
20260502231557 58 0 0.9 3.5 0.00 0.01 0.01 64 1012.9
20260502230049 57 24 0.9 4.3 0.00 0.01 0.01 65 1012.8
20260502224544 57 22 0.0 4.3 0.00 0.01 0.01 68 1012.7
20260502223037 57 0 0.0 3.5 0.00 0.01 0.01 71 1012.8
20260502221544 57 323 0.9 3.5 0.00 0.01 0.01 71 1012.7
20260502220042 57 0 0.0 0.0 0.00 0.01 0.01 76 1012.5
20260502214544 58 0 0.0 1.7 0.00 0.01 0.01 75 1012.4
20260502213042 58 0 0.9 4.3 0.00 0.01 0.01 75 1012.3
20260502211542 59 0 0.0 3.5 0.00 0.01 0.01 75 1012.4
20260502210040 59 0 0.0 2.6 0.00 0.01 0.01 75 1012.5
20260502204537 58 146 0.0 2.6 0.00 0.01 0.01 74 1012.4
20260502203035 58 0 1.7 4.3 0.00 0.01 0.01 73 1012.4
20260502201548 59 30 1.7 4.3 0.00 0.01 0.01 73 1012.5
20260502200039 60 40 0.0 4.3 0.00 0.01 0.01 73 1012.4
20260502194538 58 0 0.9 2.6 0.00 0.01 0.01 76 1012.5
20260502193049 58 163 0.9 4.3 0.00 0.01 0.01 75 1012.9
20260502191547 58 0 0.0 6.1 0.00 0.01 0.01 76 1013.0
20260502190043 59 53 0.9 6.1 0.00 0.01 0.01 77 1013.1
20260502184553 58 350 2.6 6.1 0.00 0.01 0.01 76 1013.2
20260502183037 57 38 2.6 7.8 0.00 0.01 0.01 78 1013.3
20260502181545 57 32 1.7 5.2 0.00 0.01 0.01 80 1013.5
20260502163113 54 47 1.7 6.1 0.00 0.01 0.01 87 1014.5
20260502161542 54 74 2.6 7.0 0.00 0.01 0.01 87 1014.9
20260502151545 55 51 0.0 4.3 0.01 0.01 0.01 88 1014.5
20260502123048 53 290 1.7 4.3 0.00 0.00 0.00 84 1013.8
20260502121550 53 346 0.0 4.3 0.00 0.00 0.00 85 1013.5
20260502114546 53 0 0.9 4.3 0.00 0.00 0.00 84 1013.5
20260502113044 53 352 0.0 3.5 0.00 0.00 0.00 84 1013.6
20260502111549 53 0 1.7 5.2 0.00 0.00 0.00 83 1013.6
20260502110042 53 323 0.9 7.8 0.00 0.00 0.00 82 1013.7
20260502104539 54 9 1.7 7.8 0.00 0.00 0.00 83 1013.6
20260502103059 54 343 0.9 2.6 0.00 0.00 0.00 85 1013.7
20260502101542 53 276 0.9 3.5 0.00 0.00 0.00 86 1013.8
20260502070041 53 0 0.0 0.0 0.00 0.00 0.00 90 1013.0
20260502064537 53 0 0.0 0.0 0.00 0.00 0.00 89 1012.9